Location: Saint Louis
(38.6272°N, 90.1978°W)
Time: 02:53:07
(UTC-05:00)

ISS - Pass Details

Date: 19 July 2013
Orbit: 402 x 406 km, 51.6° (Epoch: 30 August)

Event Time Altitude Azimuth Distance (km) Brightness Sun altitude
Exits shadow 04:53:03 - 275° (W) 1,501 -0.9 -10.5°
Reaches altitude 10° 04:53:11 10° 276° (W) 1,460 -0.9 -10.5°
Maximum altitude 04:55:54 24° 332° (NNW) 897 -1.5 -10.0°
Drops below altitude 10° 04:58:40 10° 29° (NNE) 1,478 0.7 -9.6°
Sets 05:01:02 0° 44° (NE) 2,349 2.6 -9.2°
